| time (UTC) | temp C | wind direction | speed KPH | gust KPH | rain 1hr cm | rain 24hr cm | rain mn cm | humidity % | barometer mb |
| 20260508084548 | 2 | 0 | 0.0 | 1.6 | 0.00 | 0.00 | 0.00 | 82 | 1009.4 |
| 20260508083052 | 3 | 0 | 0.0 | 0.0 | 0.00 | 0.00 | 0.00 | 82 | 1009.2 |
| 20260508081554 | 3 | 0 | 0.0 | 0.0 | 0.00 | 0.00 | 0.00 | 81 | 1009.1 |
| 20260508080051 | 3 | 0 | 0.0 | 0.0 | 0.00 | 0.00 | 0.00 | 80 | 1008.8 |
| 20260508074550 | 3 | 0 | 0.0 | 1.6 | 0.00 | 0.03 | 0.00 | 78 | 1008.6 |
| 20260508073049 | 3 | 0 | 0.0 | 0.0 | 0.00 | 0.03 | 0.00 | 78 | 1008.2 |
| 20260508071552 | 3 | 0 | 0.0 | 1.6 | 0.00 | 0.03 | 0.00 | 77 | 1008.4 |
| 20260508070056 | 4 | 0 | 0.0 | 0.0 | 0.00 | 0.03 | 0.00 | 77 | 1008.4 |
| 20260508064548 | 4 | 0 | 0.0 | 0.0 | 0.00 | 0.03 | 0.00 | 75 | 1008.3 |
| 20260508063100 | 4 | 0 | 0.0 | 1.6 | 0.00 | 0.03 | 0.00 | 75 | 1008.3 |
| 20260508061550 | 5 | 0 | 0.0 | 0.0 | 0.00 | 0.03 | 0.00 | 77 | 1008.3 |
| 20260508060049 | 5 | 0 | 0.0 | 1.6 | 0.00 | 0.03 | 0.00 | 78 | 1008.4 |
| 20260508054547 | 5 | 0 | 0.0 | 1.6 | 0.00 | 0.03 | 0.00 | 76 | 1008.6 |
| 20260508053102 | 5 | 0 | 0.0 | 0.0 | 0.00 | 0.03 | 0.00 | 72 | 1008.7 |
| 20260508051548 | 6 | 0 | 0.0 | 0.0 | 0.00 | 0.03 | 0.00 | 72 | 1008.8 |
| 20260508050050 | 6 | 0 | 0.0 | 1.6 | 0.00 | 0.03 | 0.00 | 68 | 1009.0 |
| 20260508044545 | 7 | 0 | 0.0 | 1.6 | 0.00 | 0.10 | 0.00 | 66 | 1009.2 |
| 20260508043058 | 7 | 0 | 0.0 | 0.0 | 0.00 | 0.10 | 0.00 | 65 | 1009.1 |
| 20260508041553 | 7 | 0 | 0.0 | 0.0 | 0.00 | 0.10 | 0.00 | 63 | 1009.1 |
| 20260508040052 | 8 | 0 | 0.0 | 0.0 | 0.00 | 0.10 | 0.00 | 62 | 1009.2 |
| 20260508034554 | 8 | 0 | 0.0 | 1.6 | 0.00 | 0.10 | 0.10 | 60 | 1009.2 |
| 20260508033052 | 8 | 0 | 0.0 | 1.6 | 0.00 | 0.10 | 0.10 | 59 | 1009.2 |
| 20260508031549 | 9 | 0 | 0.0 | 1.6 | 0.00 | 0.10 | 0.10 | 58 | 1008.9 |
| 20260508030053 | 9 | 0 | 0.0 | 6.4 | 0.00 | 0.10 | 0.10 | 59 | 1008.9 |
| 20260508024551 | 9 | 0 | 0.0 | 3.2 | 0.00 | 0.10 | 0.10 | 56 | 1008.8 |
| 20260508023044 | 10 | 0 | 0.0 | 3.2 | 0.00 | 0.10 | 0.10 | 53 | 1008.8 |
| 20260508021555 | 10 | 0 | 0.0 | 1.6 | 0.00 | 0.10 | 0.10 | 53 | 1008.8 |
| 20260508020050 | 10 | 0 | 0.0 | 0.0 | 0.00 | 0.10 | 0.10 | 50 | 1008.7 |
| 20260508014549 | 10 | 13 | 0.0 | 1.6 | 0.00 | 0.10 | 0.10 | 51 | 1008.6 |
| 20260508013056 | 11 | 0 | 0.0 | 3.2 | 0.00 | 0.10 | 0.10 | 47 | 1008.3 |
| 20260508011553 | 11 | 0 | 0.0 | 1.6 | 0.00 | 0.10 | 0.10 | 47 | 1008.2 |
| 20260508010043 | 11 | 0 | 0.0 | 1.6 | 0.00 | 0.10 | 0.10 | 44 | 1007.8 |
| 20260508004547 | 12 | 0 | 0.0 | 3.2 | 0.00 | 0.13 | 0.10 | 43 | 1007.6 |
| 20260508003048 | 12 | 0 | 0.0 | 3.2 | 0.00 | 0.13 | 0.10 | 41 | 1007.5 |
| 20260508001610 | 13 | 0 | 0.0 | 1.6 | 0.00 | 0.13 | 0.10 | 41 | 1007.4 |
| 20260508000048 | 13 | 9 | 1.6 | 8.0 | 0.00 | 0.13 | 0.10 | 36 | 1007.2 |
| 20260507234549 | 13 | 16 | 1.6 | 8.0 | 0.00 | 0.28 | 0.10 | 35 | 1007.1 |
| 20260507233050 | 14 | 0 | 0.0 | 11.3 | 0.00 | 0.28 | 0.10 | 38 | 1007.1 |
| 20260507231550 | 15 | 131 | 1.6 | 8.0 | 0.00 | 0.28 | 0.10 | 36 | 1006.8 |
| 20260507230053 | 15 | 90 | 1.6 | 6.4 | 0.00 | 0.28 | 0.10 | 35 | 1006.8 |
| 20260507224552 | 15 | 161 | 1.6 | 11.3 | 0.00 | 0.30 | 0.10 | 33 | 1006.6 |
| 20260507223050 | 15 | 188 | 3.2 | 11.3 | 0.00 | 0.30 | 0.10 | 33 | 1006.5 |
| 20260507221550 | 16 | 335 | 3.2 | 11.3 | 0.00 | 0.30 | 0.10 | 33 | 1006.4 |
| 20260507220053 | 16 | 0 | 3.2 | 12.9 | 0.00 | 0.30 | 0.10 | 34 | 1006.3 |
| 20260507214552 | 17 | 0 | 1.6 | 8.0 | 0.00 | 0.38 | 0.10 | 32 | 1006.1 |
| 20260507213050 | 17 | 38 | 3.2 | 9.7 | 0.00 | 0.38 | 0.10 | 33 | 1006.0 |
| 20260507211549 | 17 | 311 | 3.2 | 19.3 | 0.00 | 0.38 | 0.10 | 34 | 1005.9 |
| 20260507210053 | 17 | 127 | 1.6 | 8.0 | 0.00 | 0.38 | 0.10 | 32 | 1005.9 |
| 20260507204551 | 17 | 58 | 3.2 | 16.1 | 0.00 | 0.56 | 0.10 | 31 | 1006.0 |
| 20260507203051 | 17 | 244 | 3.2 | 12.9 | 0.00 | 0.56 | 0.10 | 33 | 1005.9 |
| 20260507201556 | 17 | 142 | 1.6 | 17.7 | 0.00 | 0.56 | 0.10 | 30 | 1005.7 |
| 20260507200047 | 17 | 46 | 1.6 | 12.9 | 0.00 | 0.56 | 0.10 | 29 | 1005.9 |
| 20260507194549 | 18 | 264 | 3.2 | 12.9 | 0.00 | 0.64 | 0.10 | 29 | 1006.1 |
| 20260507193053 | 18 | 296 | 3.2 | 14.5 | 0.00 | 0.64 | 0.10 | 32 | 1006.2 |
| 20260507191555 | 18 | 0 | 1.6 | 9.7 | 0.00 | 0.64 | 0.10 | 37 | 1006.2 |
| 20260507190055 | 18 | 142 | 1.6 | 20.9 | 0.00 | 0.64 | 0.10 | 35 | 1006.5 |
| 20260507184602 | 17 | 49 | 3.2 | 14.5 | 0.00 | 0.64 | 0.10 | 36 | 1006.5 |
| 20260507183051 | 17 | 0 | 3.2 | 12.9 | 0.00 | 0.64 | 0.10 | 30 | 1006.5 |
| 20260507181600 | 17 | 155 | 3.2 | 14.5 | 0.00 | 0.64 | 0.10 | 30 | 1006.7 |
| 20260507180050 | 17 | 325 | 3.2 | 11.3 | 0.00 | 0.64 | 0.10 | 34 | 1006.8 |
| 20260507174550 | 17 | 281 | 3.2 | 12.9 | 0.00 | 0.64 | 0.10 | 36 | 1006.7 |
| 20260507173050 | 17 | 147 | 1.6 | 11.3 | 0.00 | 0.64 | 0.10 | 40 | 1006.7 |
| 20260507171555 | 16 | 223 | 1.6 | 14.5 | 0.00 | 0.64 | 0.10 | 44 | 1006.9 |
| 20260507170052 | 16 | 239 | 4.8 | 12.9 | 0.00 | 0.64 | 0.10 | 44 | 1007.0 |
| 20260507164550 | 16 | 195 | 3.2 | 9.7 | 0.00 | 0.64 | 0.10 | 43 | 1007.1 |
| 20260507163048 | 16 | 310 | 3.2 | 11.3 | 0.00 | 0.64 | 0.10 | 50 | 1007.2 |
| 20260507161550 | 15 | 182 | 0.0 | 6.4 | 0.00 | 0.64 | 0.10 | 59 | 1007.4 |
| 20260507160047 | 14 | 162 | 3.2 | 8.0 | 0.00 | 0.64 | 0.10 | 55 | 1007.6 |
| 20260507154550 | 15 | 360 | 1.6 | 9.7 | 0.00 | 0.64 | 0.10 | 60 | 1007.7 |
| 20260507153051 | 15 | 195 | 3.2 | 14.5 | 0.00 | 0.64 | 0.10 | 54 | 1007.7 |
| 20260507151556 | 15 | 0 | 0.0 | 6.4 | 0.00 | 0.64 | 0.10 | 55 | 1007.9 |
| 20260507150047 | 15 | 158 | 3.2 | 8.0 | 0.00 | 0.64 | 0.10 | 53 | 1008.2 |
| 20260507144555 | 14 | 109 | 1.6 | 8.0 | 0.00 | 0.64 | 0.10 | 51 | 1008.3 |
| 20260507143048 | 13 | 90 | 1.6 | 9.7 | 0.00 | 0.64 | 0.10 | 54 | 1008.2 |
| 20260507141549 | 13 | 0 | 1.6 | 9.7 | 0.00 | 0.64 | 0.10 | 57 | 1008.2 |
| 20260507140052 | 12 | 32 | 1.6 | 8.0 | 0.00 | 0.64 | 0.10 | 59 | 1008.1 |
| 20260507134555 | 12 | 13 | 0.0 | 6.4 | 0.00 | 0.64 | 0.10 | 60 | 1008.3 |
| 20260507133056 | 12 | 0 | 1.6 | 11.3 | 0.00 | 0.64 | 0.10 | 62 | 1008.5 |
| 20260507131559 | 12 | 28 | 1.6 | 8.0 | 0.00 | 0.64 | 0.10 | 65 | 1008.6 |
| 20260507130105 | 11 | 118 | 3.2 | 16.1 | 0.00 | 0.64 | 0.10 | 65 | 1008.8 |
| 20260507124553 | 11 | 236 | 1.6 | 9.7 | 0.00 | 0.64 | 0.10 | 70 | 1008.7 |
| 20260507123052 | 10 | 252 | 0.0 | 11.3 | 0.00 | 0.64 | 0.10 | 73 | 1008.8 |
| 20260507121604 | 10 | 342 | 0.0 | 12.9 | 0.00 | 0.64 | 0.10 | 76 | 1008.8 |
| 20260507120050 | 10 | 142 | 0.0 | 8.0 | 0.00 | 0.64 | 0.10 | 75 | 1008.9 |
| 20260507114601 | 10 | 42 | 1.6 | 6.4 | 0.00 | 0.64 | 0.10 | 78 | 1008.8 |
| 20260507113051 | 9 | 0 | 0.0 | 3.2 | 0.00 | 0.64 | 0.10 | 78 | 1008.8 |
| 20260507111550 | 9 | 0 | 0.0 | 3.2 | 0.00 | 0.64 | 0.10 | 81 | 1008.2 |
| 20260507110050 | 8 | 0 | 0.0 | 3.2 | 0.00 | 0.64 | 0.10 | 80 | 1008.8 |
| 20260507104548 | 9 | 0 | 0.0 | 3.2 | 0.00 | 0.64 | 0.10 | 84 | 1008.3 |
| 20260507103047 | 9 | 0 | 0.0 | 6.4 | 0.00 | 0.64 | 0.10 | 84 | 1007.9 |
| 20260507101552 | 9 | 0 | 1.6 | 8.0 | 0.00 | 0.64 | 0.10 | 85 | 1008.2 |
| 20260507100053 | 9 | 0 | 0.0 | 4.8 | 0.00 | 0.64 | 0.10 | 86 | 1007.7 |
| 20260507094549 | 9 | 0 | 0.0 | 4.8 | 0.00 | 0.64 | 0.10 | 85 | 1008.0 |
| 20260507093054 | 9 | 0 | 0.0 | 3.2 | 0.00 | 0.64 | 0.10 | 84 | 1007.9 |
| 20260507091549 | 9 | 179 | 0.0 | 4.8 | 0.00 | 0.64 | 0.10 | 84 | 1008.2 |
| 20260507090046 | 9 | 0 | 0.0 | 6.4 | 0.00 | 0.64 | 0.10 | 82 | 1008.1 |